Weather observations for the past three days for
Fort Smith Regional Airport
Imperial (Metric)
Date Time (cdt) Wind (mph) Vis. (mi.) Weather Sky Cond. Temperature (ºF) Relative Humidity Wind Chill (°F) Heat Index (°F) Pressure Precipitation (in)
Air Dwpt 6 hour altimeter (in) sea level (mb) 1 hr 3 hr 6 hr
Max. Min.
22 05:53 Calm 10.00 Overcast BKN036 BKN055 OVC110 72 70 94% 30.01 1015.8
22 04:53 E 3 10.00 Overcast BKN065 OVC080 73 70 90% 30 1015.5
22 03:53 E 3 10.00 Overcast OVC080 73 70 90% 30 1015.3
22 02:53 E 3 10.00 Overcast BKN039 OVC050 73.9 70 88% 30.01 1015.8
22 01:53 E 5 10.00 Mostly Cloudy BKN040 BKN110 73.9 71.1 91% 30.02 1016.2
22 00:53 NE 5 10.00 Overcast FEW041 BKN055 OVC080 75 71.1 80.1 73.9 88% 75 30.04 1016.8
21 23:53 E 5 10.00 Overcast OVC060 73.9 71.1 91% 30.04 1016.9
21 22:53 NE 6 10.00 Mostly Cloudy BKN060 75.9 71.1 85% 76 30.04 1016.9
21 21:53 E 5 10.00 Partly Cloudy FEW060 SCT080 75.9 71.1 85% 76 30.03 1016.6
21 20:53 E 6 10.00 Overcast BKN060 OVC075 77 71.1 82% 79 30.02 1016.1
21 19:53 E 5 10.00 Fair CLR 78.1 70 76% 80 30.01 1015.8
21 18:53 E 6 10.00 Overcast BKN070 OVC080 79 70 81 73 74% 82 30 1015.5
21 17:53 NE 6 10.00 Mostly Cloudy SCT065 BKN080 80.1 70 71% 83 30 1015.4
21 16:53 NE 10 10.00 A Few Clouds FEW021 81 70 69% 84 30.01 1015.7
21 15:53 E 7 10.00 Partly Cloudy SCT019 79 70 74% 82 30.02 1016.2
21 14:53 E 5 10.00 Partly Cloudy FEW014 SCT025 SCT090 79 71.1 77% 82 30.05 1016.9
21 13:53 E 8 10.00 Overcast SCT013 BKN029 OVC100 77 70 79% 79 30.06 1017.4
21 12:53 NE 7 10.00 Overcast BKN007 BKN012 OVC017 73 70 73 69.1 90% 30.08 1018.2 0.71
21 11:53 Calm 9.00 Light Rain BKN005 BKN049 OVC085 72 70 94% 30.09 1018.5 0.04
21 10:53 SE 3 5.00 Light Rain Fog/Mist SCT039 OVC090 70 68 93% 30.11 1019.0 0.1
21 09:53 S 3 5.00 Rain Fog/Mist FEW006 BKN100 OVC110 69.1 66.9 93% 30.11 1019.1 0.03 0.57
21 08:53 NE 9 6.00 Light Rain Fog/Mist SCT006 BKN060 OVC120 69.1 68 96% 30.09 1018.4 0.19
21 07:53 Calm 1.25 Heavy Rain Fog/Mist FEW034 BKN047 OVC060 70 69.1 97% 30.09 1018.3 0.35
21 06:53 E 6 10.00 Overcast BKN060 OVC080 73 64.9 75 73 76% 30.05 1016.9
21 05:53 E 5 10.00 Mostly Cloudy FEW060 SCT085 BKN120 73 66 79% 30.03 1016.3
21 04:53 E 5 10.00 Thunderstorm BKN060 73.9 66 76% 30.03 1016.3
21 03:53 E 6 10.00 Fair CLR 73 64.9 76% 30.02 1016.0
21 02:53 E 6 10.00 Fair CLR 73.9 66 76% 30.03 1016.2
21 01:53 E 5 10.00 Fair CLR 75 66.9 76% 76 30.04 1016.7
21 00:53 NE 7 10.00 A Few Clouds FEW090 73.9 66.9 86 73.9 79% 30.04 1016.8
20 23:53 NE 5 10.00 Fair CLR 75 68 79% 76 30.04 1016.8
20 22:53 E 3 10.00 Fair CLR 77 68 74% 79 30.04 1016.7
20 21:53 Calm 10.00 Fair CLR 80.1 68 67% 83 30.03 1016.3
20 20:53 E 5 10.00 Fair CLR 81 66.9 62% 83 30.02 1015.9
20 19:53 SE 3 10.00 Fair CLR 84 66 55% 86 30.02 1016.0
20 18:53 SE 6 10.00 Fair CLR 86 66 89.1 84.9 51% 88 30.01 1015.9
20 17:53 E 5 10.00 Fair CLR 84.9 66 53% 87 30.02 1015.9
20 16:53 E 5 10.00 A Few Clouds FEW050 86 66 51% 88 30.02 1015.9
20 15:53 E 6 10.00 Mostly Cloudy BKN049 87.1 66 50% 89 30.02 1016.0
20 12:53 Calm 10.00 Fair CLR 84.9 64 84.9 66.9 50% 86 30.08 1018.2
20 10:53 Vrbl 3 10.00 Fair CLR 81 64 57% 83 30.11 1019.3
20 09:53 E 5 10.00 Fair CLR 77 64.9 66% 79 30.11 1019.1
20 08:53 NE 3 10.00 Fair CLR 73 64.9 76% 30.11 1019.0
20 07:53 E 5 10.00 Fair CLR 70 64 82% 30.1 1018.7
20 06:53 Calm 10.00 Fair CLR 66.9 63 71.1 66 87% 30.09 1018.3
20 05:53 E 6 10.00 Fair CLR 66.9 63 87% 30.07 1017.8
20 04:53 E 6 10.00 Fair CLR 66 62.1 87% 30.06 1017.6
20 03:53 E 3 10.00 Fair CLR 69.1 63 81% 30.06 1017.4
20 02:53 E 3 10.00 Fair CLR 69.1 63 81% 30.04 1016.9
20 01:53 E 3 10.00 Fair CLR 70 64 82% 30.04 1016.7
20 00:53 E 6 10.00 Fair CLR 70 64 84 70 82% 30.05 1017.2
19 23:53 E 3 10.00 Fair CLR 72 64 76% 30.06 1017.4
19 22:53 E 3 10.00 Fair CLR 73 64.9 76% 30.06 1017.5
19 21:53 Calm 10.00 Fair CLR 78.1 63 60% 80 30.05 1017.2
19 20:53 SE 3 10.00 Fair CLR 80.1 62.1 54% 81 30.03 1016.4
19 19:53 SE 5 10.00 Fair CLR 82.9 62.1 49% 84 30.02 1016.1
19 18:53 SE 8 10.00 Fair CLR 84 61 88 82 46% 84 30.02 1015.9
19 17:53 E 8 10.00 Fair CLR 86 61 43% 86 30.02 1016.0
19 16:53 E 5 10.00 Fair CLR 86 61 43% 86 30.03 1016.5
19 15:53 E 6 10.00 Fair CLR 86 61 43% 86 30.05 1016.9
19 14:53 Calm 10.00 Fair CLR 86 60.1 42% 86 30.07 1017.6
19 13:53 Calm 10.00 Partly Cloudy SCT055 84.9 60.1 43% 85 30.09 1018.4
19 12:53 Vrbl 7 10.00 Partly Cloudy SCT046 82 60.1 84 68 47% 82 30.11 1019.1
19 11:53 Vrbl 5 G 17 10.00 Fair CLR 82 63 53% 83 30.12 1019.4
19 10:53 E 6 10.00 Fair CLR 80.1 64 58% 82 30.14 1020.0
19 09:53 E 6 10.00 Fair CLR 77 63 62% 79 30.14 1020.1
19 08:53 E 8 10.00 Fair CLR 73.9 64 71% 30.14 1020.3
19 07:53 NE 6 10.00 Fair CLR 71.1 64.9 81% 30.13 1019.9
19 06:53 NE 5 10.00 Fair CLR 68 64 73 68 87% 30.12 1019.5
Date Time (cdt) Wind (mph) Vis. (mi.) Weather Sky Cond. Air Dwpt Max. Min. Relative Humidity Wind Chill (°F) Heat Index (°F) altimeter (in) sea level (mb) 1 hr 3 hr 6 hr
6 hour
Temperature (ºF) Pressure Precipitation (in)